The Dilly Family's Weather Page
McMurray, PA 15317   Weather
Using a La Crosse Technology Model 2315 Weather Station

  Local Radar

Local Radar

  Graphs, Details
Graphs and Gauges
Detailed Weather
Detailed Reports
Mobile Version of This Page
Brief Version of This Page
  Maps
Temperature
Heat Index
Windchill
Humidity
Radar
Dew Point
Wind
Visibility
Visible Satellite
Satellite
Fronts
Snow Depth
Jet Stream
Flight Rules
  Forecast Maps
Temperature Forecast
Maximum Temperature Forecast
Minimum Temperature Forecast
Dewpoint Forecast
Prevalent Weather
12Hr Probability of Precip.
Sky Cover
  Health Maps
UV Forecast
Air Quality
Peak Air Quality Index
  Weather Station
La Crosse Technology
 
 
Weather Underground PWS KPAMCMUR4
KPAMCMUR4 Dashboard
  Current Conditions [Select Refresh to Update]

Updated: 7:10am on 7/23/14

Currently:
71.7°

Clear
Clear

High: 75.0° 
(12:00am) 
Low: 71.0° 
(6:07am)
Wind: 0 mph from the SSE
Gust: 0 mph
Today's High Wind: 5 mph (6:05am)
Humidity: 91%
Pressure: 29.99 in  (Steady) 
Pressure Rate: 0.005 in/hr
Dew Point: 68.9°
Wind Chill: 71.7°
Heat Index (feels like): 77.5°
Comfort Level: Comfortable
Temperature Rate:  0.30°/hr
 
  5 Day Forecast
 
Wed Thu Fri Sat Sun
Clear Clear Clear Clear Clear
T-storms Partly Cloudy Partly Cloudy Chance T-storms Chance T-storms
84° 73° 77° 81° 79°
59° 52° 57° 64° 63°

  Records and Normals
 
Temperature Forecast Normal Record
High 84° 83° 95°
(1991)
Low 59° 63° 50°
(1954)
 
  Almanac
Sunrise:  
6:11am
Moonrise: 
3:28am

Moon Phase:
13%

Sunset: 
8:45pm
Moonset:  
6:11pm
 
  Weather Underground     KPAMCMUR4

  Weather Advisories
No Warning
Full Advisory Text...
  Weather Map

 
  Web Cams   (Northerly View)
Northerly view toward Pittsburgh.
 
  Rainfall Totals
Hourly Rain 0.03 in
Daily Rain 0.03 in
Monthly Rain 3.58 in
Yearly Rain 17.55 in
Normal Rain, month to date       3.43 in
Normal Rain, year to date 23.44 in
 
 
Weather.com
WeatherUnderground NorthEast Fronts
WeatherUnderground NorthEast Radar
WeatherBug NorthEast Radar
WeatherBug, Peters HS
WPXI Weather
KDKA Weather
WTEA Weather
Intellacast Canonsburg
AccuWeather
Yahoo, McMurray
Twitter, Pittsburgh
Fox53 Radar
Time and Date, Pittsburgh
NOAA Weather Pitt
FilghtStats PIT
NWS Thompsonville
USGS Tides and Temperature at Manasquan
NWS US Radar - Loop
  Local Weather Exchange Network
Station ID

City 
(Click for Map Location)

Neighborhood 
(Click for History)
Last Update (Date & Time)

Temperature
 (°)

Dew
Point (°)
Humidity 
(%)
Wind 
(mph)
from the Wind Gust 
(mph) 
Pressure (in) Hourly
Rain (in)
KPACANON4 Canonsburg Morgan's Point 07/23 07:05:20 70.2 70.0 98 0 South 0 29.75 0.00
KPACANON5 Canonsburg Canonsburg 07/23 07:09:50 71.4 68.0 90 0 West 0 30.02 0.00
KPAMCMUR4 McMurray Thompsonville-McMurray 07/23 07:05:02 71.6 69.0 91 0 SSE 0 29.99 0.03
KPACANON6 Canonsburg Sunset Acres, McMurray PA KPACANON6 07/23 06:56:07 70.7 67.0 89 0 SE 0 29.93 0.00
KPAMCMUR3 McMurray St. Benedict the Abbot 07/23 07:09:18 71.4 71.0 100 0 WSW 0 29.92 0.00
KPABRIDG2 Bridgeville Hunting Ridge 07/23 07:09:04 73.0 68.0 85 0 WNW 0 28.84 0.00
KPAVENET5 Venetia Willamar 07/23 07:01:26 70.3 68.0 92 0 SSE 0 29.92 0.00
KPABRIDG1 Bridgeville Olde Orchard South Fayette Bridgeville 07/23 07:05:06 70.9 68.0 90 0 North 0 29.86 0.00
KPAVENET3 Venetia Venetia Neighborhood Weather 07/23 07:09:37 68.0 67.0 96 0 SSE 0 29.95 0.01
KPABETHE4 Bethel Park Bethel Park, PA - Terrasurv 07/23 07:05:41 71.6 70.0 94 1 SSW 0 30.03 0.00
KPABETHE3 Bethel Park Bethel Park 07/23 07:07:36 72.4 70.0 92 0 North 1 29.94 0.00
KPAWASHI5 Washington Cameron Estates/South Strabane 07/23 07:00:45 71.1 69.0 94 0 South 0 30.03 0.00
KPAVENET4 Venetia Sugar Run Road 07/23 07:05:05 70.7 66.0 85 0 West 0 29.79 0.00
MAS795 Pittsburgh APRSWXNET Pittsburgh PA US 07/23 05:33:00 72.0 70.0 92 0 North 0 30.04 0.00
KPAMTLEB2 Mount Lebanon Mount Lebanon 07/23 07:09:50 70.9 61.0 71 0 SSW 0 30.02 0.00
KPASCOTT2 Scott Township Scott Township Neighborhood Weather 07/23 07:09:47 72.0 71.0 96 0 ESE 0 30.10 0.00
KPAPITTS50 Pittsburgh Dormont 07/23 07:09:46 73.6 73.0 99 2 South 3 29.92 0.01
KPAPITTS29 Pittsburgh Carrick/Pittsburgh 07/23 07:09:11 71.9 70.0 93 0 WSW 4 29.93 0.00
KPACRAFT2 Crafton Bradford Court 07/23 07:09:48 71.8 72.0 99 0 North 0 29.75 0.01
KPAPITTS58 Pittsburgh Robinson Township 07/23 07:09:46 71.8 68.0 89 1 WSW 1 30.00 0.00
KPAIMPER5 Imperial Imperial 07/23 07:09:47 72.0 68.0 88 2 SW 2 30.00 0.00
KPAIMPER1 Imperial Imperial Neighborhood Weather 07/23 07:06:50 72.8 71.0 95 0 SW 1 29.93 0.00
KPAIMPER4 Imperial Walden Woods 07/23 07:09:47 73.2 72.0 96 1 WSW 2 29.69 0.00
KPAPITTS46 Pittsburgh Baldwin 07/23 07:09:49 73.1 68.0 83 0 North 0 30.05 0.00
KPAPITTS62 Pittsburgh Crafton Heights 07/23 07:09:46 71.3 68.0 90 0 South 0 29.87 0.00
KPACLAIR2 Clairton Jefferson Hills 07/23 07:09:40 70.3 60.0 69 0 South 0 30.03 0.00
KPAWASHI2 Washington South Franklin, Alamae Lakes 07/23 07:05:29 70.8 69.0 95 1 West 2 29.94 0.00
KPAMOON3 Moon Sonoma Ridge 07/23 07:01:19 72.0 70.0 93 0 ESE 1 29.95 0.00
KPABURGS2 Burgsttown Pa Burgettstown PA 07/23 07:08:39 71.1 71.0 99 0 NE 0 29.93 0.00
KPACORAO3 Coraopolis Route 51 07/23 07:09:43 73.4 72.0 96 3 West 3 32.00 0.00
KPAPITTS56 Pittsburgh Carnegie Mellon University 07/23 07:09:36 72.9 70.0 92 0 North 2 --- 0.00
KPAPITTS75 Pittsburgh Shadyside 07/23 07:08:40 73.9 72.0 93 0 WNW 1 29.94 0.04
KPAPITTS33 Pittsburgh Squirrel Hill 07/23 07:00:00 72.5 63.0 71 0 North 0 29.24 0.00
KAFJ Washington Official Station 07/23 06:55:00 70.0 68.0 94 5 SSW --- 30.04 ---
KAGC Pittsburgh Allegheny Co. Official Station 07/23 07:01:00 72.0 68.0 88 6 South --- 30.02 ---
KPIT Pittsburgh Official Station 07/23 06:51:00 73.0 70.0 90 6 West --- 30.01 ---
KHLG Wheeling Official Station 07/23 06:53:00 72.0 69.0 91 5 WSW --- 30.01 ---
  Full Advisory Text
No Warnings

7/23/14 4+ 7:10am   - http://weatherstation.wunderground.com/weatherstation/updateweatherstation.php?action=updateraw&ID=KPASMITH2&PASSWORD=&dateutc=2010-07-05+22%3A09%3A33&winddir=SSE&tempf=71.7&windspeedmph=0&humidity=91&dewptf=68.9&baromin=29.99&rainin=0.03&dailyrainin=0.03

Ambient Weather and Weather Underground
 Never base important decisions on this or any weather information obtained from the Internet
Updated Automatically by Ambient Weather's Virtual Weather Station  V14.00

Template updated: 5:35 PM 6/9/2011